| time (UTC) | temp F | wind direction | speed MPH | gust MPH | rain 1hr in | rain 24hr in | rain mn in | humidity % | barometer mb |
| 20260504120124 | 53 | 301 | 4.0 | 11.0 | 0.00 | 0.00 | 0.00 | 74 | 1008.3 |
| 20260504081529 | 46 | 261 | 0.0 | 3.0 | 0.00 | 0.00 | 0.00 | 70 | 1008.4 |
| 20260504050006 | 50 | 282 | 1.0 | 4.0 | 0.00 | 0.00 | 0.00 | 50 | 1008.2 |
| 20260504044603 | 50 | 311 | 0.0 | 0.0 | 0.00 | 0.00 | 0.00 | 50 | 1008.1 |
| 20260504043057 | 50 | 311 | 0.0 | 2.0 | 0.00 | 0.00 | 0.00 | 49 | 1008.0 |
| 20260504041555 | 51 | 313 | 0.0 | 0.0 | 0.00 | 0.00 | 0.00 | 49 | 1007.9 |
| 20260504040055 | 51 | 313 | 0.0 | 0.0 | 0.00 | 0.00 | 0.00 | 49 | 1007.9 |
| 20260504034607 | 51 | 313 | 0.0 | 2.0 | 0.00 | 0.00 | 0.00 | 48 | 1007.8 |
| 20260504033050 | 51 | 313 | 1.0 | 2.0 | 0.00 | 0.00 | 0.00 | 47 | 1007.6 |
| 20260504031549 | 52 | 313 | 0.0 | 2.0 | 0.00 | 0.00 | 0.00 | 47 | 1007.7 |
| 20260504030148 | 52 | 313 | 0.0 | 2.0 | 0.00 | 0.00 | 0.00 | 47 | 1007.5 |
| 20260504024545 | 52 | 315 | 0.0 | 3.0 | 0.00 | 0.00 | 0.00 | 46 | 1007.8 |
| 20260504023044 | 53 | 305 | 0.0 | 3.0 | 0.00 | 0.00 | 0.00 | 45 | 1007.6 |
| 20260504021543 | 53 | 301 | 0.0 | 3.0 | 0.00 | 0.00 | 0.00 | 44 | 1007.6 |
| 20260504020043 | 54 | 298 | 0.0 | 4.0 | 0.00 | 0.00 | 0.00 | 44 | 1007.5 |
| 20260504014558 | 54 | 306 | 1.0 | 5.0 | 0.00 | 0.00 | 0.00 | 42 | 1007.4 |
| 20260504013045 | 54 | 299 | 0.0 | 3.0 | 0.00 | 0.00 | 0.00 | 42 | 1007.5 |
| 20260504011543 | 55 | 294 | 0.0 | 3.0 | 0.00 | 0.00 | 0.00 | 41 | 1007.0 |
| 20260504010042 | 55 | 290 | 0.0 | 1.0 | 0.00 | 0.00 | 0.00 | 40 | 1006.8 |
| 20260504004538 | 56 | 290 | 0.0 | 2.0 | 0.00 | 0.00 | 0.00 | 39 | 1006.8 |
| 20260504003048 | 57 | 295 | 0.0 | 3.0 | 0.00 | 0.00 | 0.00 | 37 | 1006.5 |
| 20260504001534 | 58 | 313 | 2.0 | 5.0 | 0.00 | 0.00 | 0.00 | 36 | 1006.3 |
| 20260504000034 | 58 | 292 | 2.0 | 8.0 | 0.00 | 0.00 | 0.00 | 36 | 1006.4 |
| 20260503234544 | 59 | 319 | 2.0 | 8.0 | 0.00 | 0.00 | 0.00 | 35 | 1006.3 |
| 20260503233031 | 59 | 310 | 1.0 | 8.0 | 0.00 | 0.00 | 0.00 | 34 | 1006.3 |
| 20260503231529 | 60 | 308 | 6.0 | 11.0 | 0.00 | 0.00 | 0.00 | 32 | 1006.1 |
| 20260503230029 | 60 | 279 | 4.0 | 10.0 | 0.00 | 0.00 | 0.00 | 32 | 1006.0 |
| 20260503224528 | 60 | 9 | 3.0 | 12.0 | 0.00 | 0.00 | 0.00 | 31 | 1005.9 |
| 20260503223157 | 60 | 42 | 8.0 | 15.0 | 0.00 | 0.00 | 0.00 | 30 | 1005.9 |
| 20260503221557 | 61 | 298 | 5.0 | 14.0 | 0.00 | 0.00 | 0.00 | 29 | 1006.1 |
| 20260503220055 | 61 | 15 | 6.0 | 14.0 | 0.00 | 0.00 | 0.00 | 30 | 1005.8 |
| 20260503214552 | 60 | 38 | 4.0 | 11.0 | 0.00 | 0.00 | 0.00 | 31 | 1006.1 |
| 20260503213057 | 60 | 299 | 5.0 | 20.0 | 0.00 | 0.00 | 0.00 | 31 | 1005.8 |
| 20260503211553 | 60 | 13 | 10.0 | 22.0 | 0.00 | 0.00 | 0.00 | 31 | 1005.9 |
| 20260503210100 | 59 | 335 | 8.0 | 17.0 | 0.00 | 0.00 | 0.00 | 31 | 1005.9 |
| 20260503204545 | 59 | 342 | 5.0 | 18.0 | 0.00 | 0.00 | 0.00 | 31 | 1006.0 |
| 20260503203050 | 60 | 18 | 5.0 | 19.0 | 0.00 | 0.00 | 0.00 | 31 | 1006.1 |
| 20260503201542 | 59 | 355 | 5.0 | 16.0 | 0.00 | 0.00 | 0.00 | 32 | 1006.0 |
| 20260503200042 | 59 | 346 | 8.0 | 17.0 | 0.00 | 0.00 | 0.00 | 32 | 1006.3 |
| 20260503194538 | 58 | 355 | 8.0 | 16.0 | 0.00 | 0.00 | 0.00 | 31 | 1006.1 |
| 20260503193036 | 58 | 311 | 5.0 | 12.0 | 0.00 | 0.00 | 0.00 | 32 | 1006.3 |
| 20260503191533 | 58 | 346 | 8.0 | 16.0 | 0.00 | 0.00 | 0.00 | 31 | 1006.6 |
| 20260503190031 | 58 | 24 | 8.0 | 15.0 | 0.00 | 0.00 | 0.00 | 32 | 1006.3 |
| 20260503184531 | 57 | 300 | 8.0 | 15.0 | 0.00 | 0.00 | 0.00 | 32 | 1006.6 |
| 20260503183039 | 57 | 33 | 4.0 | 16.0 | 0.00 | 0.00 | 0.00 | 33 | 1006.6 |
| 20260503181524 | 56 | 5 | 7.0 | 13.0 | 0.00 | 0.00 | 0.00 | 33 | 1006.9 |
| 20260503180021 | 56 | 360 | 7.0 | 16.0 | 0.00 | 0.00 | 0.00 | 33 | 1007.1 |
| 20260503174517 | 55 | 11 | 7.0 | 12.0 | 0.00 | 0.00 | 0.00 | 34 | 1007.1 |
| 20260503173017 | 54 | 30 | 8.0 | 16.0 | 0.00 | 0.00 | 0.00 | 35 | 1007.2 |
| 20260503171514 | 54 | 49 | 6.0 | 13.0 | 0.00 | 0.00 | 0.00 | 35 | 1007.3 |